Date,TemperatureHighF,TemperatureAvgF,TemperatureLowF,DewpointHighF,DewpointAvgF,DewpointLowF,HumidityHigh,HumidityAvg,HumidityLow,PressureMaxIn,PressureMinIn,WindSpeedMaxMPH,WindSpeedAvgMPH,GustSpeedMaxMPH,PrecipitationSumIn
2012-1-1,57.7,48.5,37.4,52.6,30.3,14.4,83,51,28,30.35,29.81,30,6,30,0.00
2012-1-2,40.2,31.4,22.4,17.5,12.8,5.6,59,46,29,30.49,30.32,25,6,25,0.00
2012-1-3,40.2,27.4,17.1,14.5,11.3,8.5,72,52,30,30.59,30.29,9,1,9,0.00
2012-1-4,51.4,36.5,26.4,29.5,22.0,12.4,87,57,40,30.30,30.09,15,2,15,0.00
2012-1-5,60.7,41.3,21.8,37.0,28.9,19.6,95,65,36,30.23,29.99,10,1,12,0.00
2012-1-6,69.0,53.2,35.3,53.4,39.5,28.9,83,63,30,30.00,29.84,14,2,17,0.00
2012-1-7,63.4,48.2,32.6,52.7,34.1,23.7,91,61,28,30.20,29.87,13,2,13,0.00
2012-1-8,57.2,43.4,31.0,36.9,32.2,26.9,91,66,40,30.27,30.19,9,2,10,0.00
2012-1-9,62.2,45.3,30.5,42.1,35.1,27.0,89,70,36,30.23,30.13,8,1,8,0.05
2012-1-10,60.6,41.7,25.1,43.0,31.6,22.9,94,72,30,30.14,29.69,8,1,10,0.81
2012-1-11,46.7,45.0,39.7,45.6,43.7,38.1,96,95,93,29.69,29.51,13,2,13,0.29
2012-1-12,42.1,29.8,20.8,40.9,25.6,13.3,96,84,71,29.98,29.59,25,5,26,0.01
2012-1-13,33.2,25.5,17.8,23.1,17.5,12.8,89,72,60,30.20,29.97,21,3,21,0.01
2012-1-14,48.4,30.3,15.7,30.6,21.6,13.5,93,72,48,30.35,29.99,16,2,16,0.00
2012-1-15,49.7,34.4,17.8,30.6,24.3,15.5,95,69,44,30.47,30.19,9,1,10,0.00
2012-1-16,62.7,55.8,43.9,56.3,46.5,30.5,81,71,55,30.19,29.82,20,4,20,0.00
2012-1-17,69.2,49.4,28.0,60.6,42.4,20.7,91,77,62,30.31,29.74,48,9,52,0.29
2012-1-18,40.8,30.7,24.1,26.3,21.4,17.9,80,69,48,30.38,30.10,19,3,19,0.00
2012-1-19,53.9,37.1,28.6,33.1,27.6,22.9,82,70,41,30.10,29.95,24,3,24,0.00
2012-1-20,42.6,36.2,27.9,38.4,30.8,23.6,88,81,66,30.10,29.81,21,4,23,0.00
2012-1-21,38.4,33.0,28.9,32.1,27.9,24.5,89,82,69,30.16,29.91,23,6,30,0.00
2012-1-22,65.4,46.5,33.9,62.0,44.2,30.2,95,92,83,30.10,29.56,47,6,49,0.89
2012-1-23,58.1,49.2,38.8,53.0,41.0,34.8,91,74,55,30.07,29.56,37,7,40,0.01
2012-1-24,58.4,40.0,26.8,38.0,31.3,24.4,95,74,41,30.33,30.07,21,1,21,0.00
2012-1-25,40.2,36.8,31.3,38.3,34.3,28.1,94,91,84,30.31,29.88,16,2,18,0.38
2012-1-26,43.4,41.1,39.2,42.2,39.8,37.3,97,95,93,29.89,29.67,24,3,24,0.52
2012-1-27,44.9,39.3,33.8,40.7,35.8,32.1,95,88,74,30.07,29.80,16,2,16,0.00
2012-1-28,51.9,40.6,31.9,38.9,29.1,19.2,93,67,32,30.37,29.99,30,4,33,0.01
2012-1-29,57.2,41.2,30.1,34.4,28.8,25.3,90,64,35,30.35,30.26,28,3,28,0.00
2012-1-30,64.5,47.8,27.8,35.5,31.2,25.8,93,58,31,30.26,30.12,26,4,32,0.00
2012-1-31,61.8,55.6,50.3,53.4,44.0,29.7,87,66,41,30.16,30.03,24,4,24,0.04
2012-2-1,60.5,54.2,44.0,57.2,51.0,40.1,94,89,81,30.15,30.01,16,1,18,0.03
2012-2-2,70.3,48.2,31.9,48.8,37.6,30.1,96,71,32,30.33,30.14,14,1,14,0.00
2012-2-3,58.3,48.1,34.5,47.4,40.0,31.3,90,75,52,30.34,30.10,16,1,16,0.08
2012-2-4,58.8,54.4,49.0,56.2,51.8,45.1,96,91,73,30.10,29.99,18,2,18,0.32
2012-2-5,49.0,45.1,41.5,46.5,42.8,39.3,94,91,87,30.27,30.08,21,4,21,0.00
2012-2-6,57.2,41.4,29.8,42.5,33.7,27.6,97,77,43,30.31,30.21,19,2,21,0.00
2012-2-7,58.4,41.7,25.9,42.9,32.5,24.4,96,72,41,30.29,30.22,10,1,14,0.01
2012-2-8,43.1,37.6,33.0,38.9,33.0,27.9,92,84,73,30.42,30.28,14,4,18,0.02
2012-2-9,41.2,36.4,31.3,30.0,28.1,25.9,88,72,58,30.41,30.22,14,2,16,0.00
2012-2-10,38.6,36.0,27.8,36.8,30.7,19.8,93,81,72,30.22,30.02,38,4,38,0.05
2012-2-11,35.1,26.8,20.3,20.8,12.7,7.0,76,56,35,30.54,30.19,33,9,40,0.00
2012-2-12,44.4,27.8,18.3,15.9,10.4,6.4,82,50,24,30.57,30.35,23,3,23,0.00
2012-2-13,38.1,28.9,16.3,31.5,21.9,13.2,93,77,42,30.36,29.95,21,2,21,0.00
2012-2-14,42.1,37.3,33.2,36.2,33.9,31.4,95,88,77,30.11,29.90,18,2,18,0.25
2012-2-15,52.2,45.1,36.4,46.9,41.6,33.1,95,88,76,30.16,29.97,18,2,18,0.19
2012-2-16,58.6,47.1,33.0,49.5,42.9,30.8,96,86,67,30.25,29.97,23,3,23,0.03
2012-2-17,57.2,40.3,27.3,42.2,32.3,25.8,96,76,41,30.27,30.11,12,1,12,0.00
2012-2-18,49.5,41.4,32.1,39.6,34.9,29.7,93,78,62,30.14,30.03,21,4,21,0.00
2012-2-19,53.7,39.7,26.5,34.6,27.8,21.8,84,64,33,30.17,29.99,26,6,26,0.00
2012-2-20,55.9,39.0,19.6,33.1,25.2,17.0,94,62,29,30.29,29.92,19,2,19,0.00
2012-2-21,57.4,49.2,44.5,42.5,38.5,30.3,83,67,49,30.00,29.80,40,8,42,0.06
2012-2-22,64.3,52.4,35.3,53.4,43.3,31.6,93,73,43,29.87,29.48,23,2,26,0.00
2012-2-23,74.3,60.2,46.2,59.5,50.9,43.0,94,73,53,29.53,29.25,35,5,42,0.00
2012-2-24,57.4,45.8,38.8,44.3,29.8,22.7,70,54,43,30.17,29.48,49,10,49,0.00
2012-2-25,50.9,38.8,27.4,26.5,21.1,12.7,76,51,24,30.34,30.17,37,5,37,0.00
2012-2-26,63.9,46.6,29.4,30.6,25.3,20.8,75,47,23,30.33,30.14,30,4,30,0.00
2012-2-27,69.3,53.7,41.0,40.2,33.1,26.8,63,47,27,30.42,30.23,23,4,23,0.00
2012-2-28,74.1,54.7,33.4,60.0,40.0,25.5,86,59,35,30.39,29.84,30,3,30,0.08
2012-2-29,71.3,62.9,52.2,63.2,47.8,29.8,93,62,32,29.87,29.68,61,7,61,0.91
2012-3-1,71.8,56.8,38.4,41.0,33.5,29.8,85,44,23,29.94,29.66,19,2,19,0.00
2012-3-2,80.5,60.7,36.4,64.0,48.5,29.8,86,66,25,29.87,29.31,51,9,54,0.00
2012-3-3,59.1,43.7,31.7,34.4,26.9,19.6,84,55,28,29.97,29.85,30,5,32,0.00
2012-3-4,57.6,44.6,30.6,33.8,27.0,21.8,77,52,30,30.00,29.83,32,4,32,0.00
2012-3-5,52.1,41.7,32.5,32.0,25.8,19.5,72,55,31,30.47,30.00,37,5,46,0.00
2012-3-6,72.3,55.6,36.0,38.8,29.8,23.9,68,40,24,30.36,30.16,30,5,32,0.00
2012-3-7,73.7,63.1,53.1,54.5,43.8,28.9,63,50,33,30.25,30.05,38,8,38,0.00
2012-3-8,67.6,50.4,35.8,57.9,46.1,33.2,94,86,62,30.40,29.98,30,6,37,1.13
2012-3-9,65.3,45.7,32.6,40.5,30.9,22.6,91,61,25,30.50,30.38,35,4,35,0.01
2012-3-10,63.9,44.6,0.0,36.7,27.7,21.9,89,57,22,30.51,30.29,18,2,18,0.00
2012-3-11,65.9,52.7,34.2,55.6,41.6,29.9,92,68,43,30.31,30.06,28,3,28,0.11
2012-3-12,77.5,66.5,59.5,64.6,59.2,55.3,92,78,57,30.07,29.93,38,6,38,0.12
2012-3-13,81.7,68.6,57.3,64.5,59.6,54.1,96,75,45,30.12,30.02,21,2,21,0.00
2012-3-14,85.0,68.1,50.1,67.4,59.4,48.4,97,76,49,30.16,30.02,23,2,24,0.00
2012-3-15,73.8,66.5,60.4,64.7,61.1,56.6,96,83,71,30.19,30.05,37,2,37,0.29
2012-3-16,79.8,66.6,56.4,65.4,59.9,54.4,96,80,58,30.12,30.01,19,2,19,0.32
2012-3-17,80.8,67.6,54.2,66.1,59.5,52.4,97,77,55,30.13,30.03,19,1,26,0.00
2012-3-18,84.3,71.4,55.5,66.4,60.8,53.2,95,71,49,30.15,30.02,21,2,23,0.00
2012-3-19,84.8,74.0,66.7,65.1,57.8,50.2,76,59,32,30.07,29.92,28,4,28,0.00
2012-3-20,87.5,74.7,63.8,59.1,56.2,53.0,76,55,33,30.03,29.89,37,4,37,0.00
2012-3-21,84.5,76.0,66.9,60.4,57.5,54.8,66,53,42,30.04,29.93,30,5,30,0.00
2012-3-22,73.0,64.2,59.3,63.1,59.5,56.4,95,85,59,30.07,29.95,23,2,23,0.84
2012-3-23,71.3,61.2,52.9,62.7,54.9,45.8,97,81,49,29.99,29.81,30,4,33,0.21
2012-3-24,73.8,59.1,50.3,58.0,51.2,47.3,93,77,49,29.92,29.81,21,2,21,0.07
2012-3-25,74.5,61.7,51.7,61.6,55.2,49.5,96,80,58,30.06,29.91,19,3,19,0.02
2012-3-26,81.3,63.2,47.2,61.3,52.5,45.6,97,72,43,30.17,30.04,16,1,16,0.00
2012-3-27,82.6,65.8,50.8,57.6,48.8,39.8,76,56,33,30.18,29.99,21,2,23,0.00
2012-3-28,87.7,72.4,58.8,63.8,56.9,51.0,86,61,33,30.04,29.92,24,2,24,0.00
2012-3-29,85.8,71.3,60.7,62.2,57.2,50.2,89,65,33,29.98,29.85,18,2,19,0.00
2012-3-30,81.0,70.9,60.7,62.0,58.6,55.8,85,66,46,29.87,29.74,23,3,32,0.00
2012-3-31,82.8,65.7,55.8,64.5,56.1,49.4,93,74,40,29.88,29.79,12,1,14,0.00
2012-4-1,83.8,68.7,51.0,64.1,56.1,47.6,93,67,41,29.82,29.64,23,3,23,0.00
2012-4-2,89.5,73.4,56.5,66.5,59.7,53.1,93,65,36,29.83,29.66,18,1,18,0.00
2012-4-3,82.2,70.9,62.4,61.9,57.1,54.1,84,64,40,29.94,29.79,16,2,18,0.00
2012-4-4,80.0,69.0,59.1,61.7,57.6,55.5,89,69,44,29.84,29.65,13,1,14,0.00
2012-4-5,67.1,58.5,49.0,57.9,51.7,38.9,90,78,61,29.95,29.66,25,2,27,0.00
2012-4-6,65.4,49.9,36.9,38.8,33.8,27.3,82,57,29,30.18,29.95,16,3,20,0.00
2012-4-7,73.0,51.1,32.2,43.4,36.5,28.8,91,63,28,30.26,30.15,13,1,13,0.00
2012-4-8,70.7,56.9,43.5,44.0,38.4,21.9,82,55,19,30.32,30.18,25,4,27,0.00
2012-4-9,77.8,56.8,36.4,45.0,36.7,24.3,92,55,16,30.19,30.04,20,2,27,0.00
2012-4-10,69.5,55.1,39.6,43.9,34.2,24.3,85,50,20,30.17,30.04,23,4,25,0.00
2012-4-11,64.1,47.7,34.2,35.9,31.4,24.6,89,58,28,30.28,30.11,23,2,25,0.00
2012-4-12,68.5,49.1,30.8,39.8,32.9,27.7,93,59,25,30.32,30.14,22,1,22,0.00
2012-4-13,68.2,55.1,41.5,46.3,41.2,36.6,87,62,38,30.20,30.06,27,3,29,0.00
2012-4-14,83.0,70.4,56.5,62.2,54.3,43.1,77,58,44,30.07,29.88,36,5,38,0.00
2012-4-15,84.3,74.4,65.3,62.5,58.7,54.4,76,59,42,29.98,29.75,31,7,40,0.01
2012-4-16,76.1,60.7,51.8,64.7,51.4,45.3,90,73,46,30.24,29.76,31,4,36,0.41
2012-4-17,70.5,56.9,47.6,54.5,48.4,43.8,92,75,49,30.36,30.23,16,1,16,0.00
2012-4-18,78.0,59.8,41.2,54.0,44.2,38.8,93,62,28,30.26,30.06,18,1,18,0.00
2012-4-19,80.5,63.2,43.4,53.2,46.4,40.8,97,60,29,30.06,29.83,18,1,18,0.00
2012-4-20,75.3,60.0,48.3,59.6,51.8,44.6,93,76,50,29.95,29.79,23,4,29,0.08
2012-4-21,63.5,49.7,39.5,49.2,42.5,37.1,91,77,54,30.00,29.94,27,5,27,0.00
2012-4-22,65.3,49.9,36.8,51.2,41.4,31.7,97,74,48,30.03,29.89,25,3,27,0.04
2012-4-23,67.2,52.5,36.3,41.3,35.2,29.6,81,54,30,30.08,29.93,32,4,32,0.00
2012-4-24,77.8,61.7,46.3,47.7,43.3,39.0,81,54,28,29.94,29.69,22,4,25,0.00
2012-4-25,82.0,71.2,59.3,63.7,56.9,46.8,76,61,49,29.74,29.59,31,4,36,0.00
2012-4-26,90.8,76.1,62.7,69.2,60.9,50.6,78,61,35,29.98,29.66,25,5,29,0.00
2012-4-27,70.9,59.1,50.5,54.8,43.1,32.7,83,57,33,30.12,29.92,20,3,20,0.08
2012-4-28,85.2,71.9,56.8,67.2,60.2,49.7,90,68,47,29.99,29.86,20,3,23,0.00
2012-4-29,88.3,76.5,64.5,68.3,63.1,59.6,87,65,43,30.06,29.96,20,2,20,0.00
2012-4-30,84.8,73.7,66.3,70.3,64.8,60.8,89,75,52,30.02,29.90,29,3,32,0.15
2012-5-1,90.0,76.7,63.5,70.5,65.1,61.5,97,70,42,29.98,29.85,29,4,31,0.01
2012-5-2,92.0,81.0,71.6,69.8,66.3,64.2,81,63,44,29.99,29.89,27,4,27,0.00
2012-5-3,85.2,75.9,66.4,69.4,66.2,61.8,89,73,57,30.05,29.93,20,3,20,0.00
2012-5-4,91.3,79.6,69.8,75.0,69.6,66.2,91,73,49,30.00,29.85,20,2,23,0.00
2012-5-5,94.3,80.6,67.8,74.3,69.9,62.4,90,72,49,29.95,29.84,18,2,20,0.00
2012-5-6,94.7,81.2,70.0,74.5,66.4,58.3,89,63,40,29.93,29.81,14,2,22,0.00
2012-5-7,83.2,73.7,66.9,69.6,64.7,58.9,89,74,58,29.90,29.76,20,2,20,0.03
2012-5-8,82.8,69.0,57.6,64.6,57.8,50.3,93,70,35,29.96,29.86,18,2,18,0.00
2012-5-9,80.7,65.7,50.8,56.5,49.4,44.0,93,59,31,29.96,29.89,25,3,25,0.00
2012-5-10,78.8,62.2,45.9,56.7,49.0,43.9,96,65,36,30.03,29.92,14,1,14,0.00
2012-5-11,78.5,63.8,44.8,53.2,47.9,42.5,94,61,33,30.15,30.02,20,2,20,0.00
2012-5-12,74.0,64.1,57.0,62.2,56.7,51.8,93,78,51,30.19,30.12,13,0,13,0.03
2012-5-13,84.0,69.2,59.9,64.5,58.2,53.6,95,71,39,30.12,29.97,27,3,27,0.01
2012-5-14,82.8,66.7,51.8,64.7,57.4,49.6,96,74,48,30.07,29.98,20,1,20,0.00
2012-5-15,89.5,70.8,54.5,62.3,53.5,42.0,97,62,23,30.04,29.94,14,2,16,0.00
2012-5-16,91.5,72.3,51.6,60.6,54.6,49.3,96,59,28,30.01,29.89,18,2,18,0.00
2012-5-17,88.0,71.6,55.3,63.5,54.1,43.6,75,55,38,30.03,29.94,20,2,20,0.00
2012-5-18,91.1,74.7,56.1,69.0,60.2,53.5,94,64,37,30.02,29.91,16,2,16,0.00
2012-5-19,70.4,65.4,61.2,62.0,60.3,57.8,91,84,74,30.03,29.96,7,0,7,0.00
2012-5-20,93.0,74.0,60.5,71.9,62.5,58.1,97,71,35,30.11,29.96,34,1,38,1.44
2012-5-21,79.7,69.0,57.6,67.9,59.8,51.3,98,75,50,30.07,29.99,20,3,20,0.01
2012-5-22,80.7,64.2,49.3,59.1,50.0,44.0,89,64,32,30.04,29.88,20,3,20,0.00
2012-5-23,83.3,66.8,45.7,56.9,51.3,43.8,97,62,34,29.90,29.77,14,2,14,0.00
2012-5-24,91.3,75.4,54.2,66.3,59.2,51.1,92,60,37,29.84,29.69,29,4,29,0.00
2012-5-25,91.0,80.5,72.4,70.0,65.5,61.1,77,62,41,30.02,29.84,22,2,22,0.00
2012-5-26,95.7,81.4,65.3,71.0,64.8,60.9,88,58,30,30.11,29.98,20,2,20,0.00
2012-5-27,95.7,81.2,64.5,70.2,64.6,61.1,89,56,31,30.05,29.90,16,2,16,0.00
2012-5-28,94.2,81.5,66.8,71.0,65.8,62.8,86,58,33,29.95,29.79,20,2,20,0.00
2012-5-29,91.4,79.5,64.2,70.8,65.7,60.1,83,60,38,29.87,29.80,25,2,25,0.00
2012-5-30,85.7,71.0,58.6,67.7,59.1,54.9,93,65,38,29.98,29.83,23,2,23,0.00
2012-5-31,86.9,68.5,54.0,67.2,58.8,51.4,89,69,41,29.87,29.65,22,2,23,0.00
2012-6-1,70.3,59.3,50.0,52.7,48.2,43.9,84,64,38,29.94,29.76,25,4,31,0.00
2012-6-2,80.2,63.7,43.5,56.7,48.9,41.5,92,59,31,30.00,29.83,23,2,23,0.00
2012-6-3,89.3,74.1,59.2,64.6,57.5,48.5,87,57,22,29.93,29.79,14,1,14,0.03
2012-6-4,88.9,74.3,63.2,71.9,65.8,61.1,91,73,47,29.86,29.67,27,2,27,1.85
2012-6-5,83.4,69.3,57.8,66.2,58.3,49.1,92,67,35,29.91,29.78,18,2,18,0.00
2012-6-6,80.5,66.1,53.7,59.0,52.9,48.7,87,62,33,30.04,29.90,18,2,20,0.00
2012-6-7,83.7,67.0,49.9,58.7,52.8,48.0,91,61,31,30.09,30.01,18,1,20,0.00
2012-6-8,85.2,69.9,51.5,60.4,53.4,48.1,91,57,26,30.10,29.94,18,2,18,0.00
2012-6-9,88.0,74.0,57.1,63.5,58.1,53.5,87,57,31,29.99,29.87,20,2,22,0.00
2012-6-10,80.0,71.3,59.5,69.1,64.0,56.9,89,74,59,29.95,29.88,22,3,22,0.00
2012-6-11,87.8,72.5,64.4,75.0,67.6,62.3,92,81,54,29.99,29.76,32,2,49,0.83
2012-6-12,85.5,72.4,59.5,68.3,61.1,52.1,93,67,33,30.07,29.92,20,2,20,0.00
2012-6-13,86.2,68.7,51.3,61.1,53.5,47.5,89,59,23,30.10,29.99,9,1,14,0.00
2012-6-14,89.8,72.1,54.0,65.8,58.3,51.7,92,62,29,30.06,29.96,14,1,16,0.00
2012-6-15,93.7,77.0,59.5,71.2,64.2,56.9,89,64,37,30.07,29.96,16,1,16,0.00
2012-6-16,91.8,81.5,71.6,71.5,68.5,64.5,84,63,39,30.13,29.96,18,2,20,0.00
2012-6-17,87.9,78.4,69.6,73.0,67.8,64.7,83,67,50,30.02,29.88,22,3,22,0.02
2012-6-18,90.5,80.0,68.0,68.4,64.0,60.6,78,56,35,29.95,29.87,25,3,25,0.00
2012-6-19,91.3,81.0,70.3,70.1,64.4,61.1,74,55,36,30.06,29.94,23,3,23,0.00
2012-6-20,93.5,80.2,65.2,67.3,62.4,56.8,85,54,30,30.10,29.97,18,2,18,0.00
2012-6-21,91.5,79.0,62.7,69.6,63.7,59.1,87,58,37,30.04,29.90,20,2,20,0.00
2012-6-22,93.3,79.8,67.6,67.7,61.7,53.3,85,54,27,29.99,29.88,20,2,20,0.00
2012-6-23,93.5,76.7,58.1,67.8,57.3,50.8,85,51,23,30.00,29.89,14,1,14,0.00
2012-6-24,98.2,80.6,60.7,69.7,61.5,57.2,87,53,24,29.97,29.85,14,1,14,0.00
2012-6-25,98.5,81.8,66.2,73.3,64.6,50.8,83,55,30,29.88,29.78,20,2,20,0.00
2012-6-26,88.5,73.2,58.8,54.2,49.1,42.8,71,41,20,29.95,29.86,25,2,25,0.00
2012-6-27,96.4,75.1,51.5,61.1,52.8,44.0,88,48,14,30.01,29.90,13,1,14,0.00
2012-6-28,103.5,83.1,58.8,67.3,60.0,53.8,85,47,18,29.99,29.89,20,2,20,0.00
2012-6-29,106.3,88.5,70.2,75.1,67.6,59.1,82,50,18,29.92,29.78,14,2,16,0.00
2012-6-30,105.2,89.5,75.4,75.1,68.7,64.7,75,49,25,29.85,29.78,14,2,14,0.00
2012-7-1,104.3,87.0,73.8,76.1,68.6,63.9,78,53,25,29.95,29.85,18,2,18,0.00
2012-7-2,101.3,86.9,73.9,72.8,69.0,64.7,81,54,29,30.00,29.89,20,2,20,0.00
2012-7-3,96.0,78.8,71.8,75.1,69.5,64.2,92,71,41,29.98,29.87,29,1,40,0.38
2012-7-4,99.7,81.6,70.5,77.9,72.3,68.0,94,72,36,29.96,29.88,16,0,16,0.00
2012-7-5,104.3,87.5,71.3,76.8,71.6,63.5,92,60,26,29.97,29.87,14,1,14,0.00
2012-7-6,105.3,90.0,75.9,76.7,70.6,61.5,82,52,23,29.95,29.85,23,2,25,0.00
2012-7-7,104.0,87.0,73.5,77.8,71.7,64.2,81,59,32,29.97,29.85,18,1,20,0.04
2012-7-8,99.3,84.3,70.4,76.6,72.0,67.3,90,65,39,29.98,29.82,32,3,32,0.13
2012-7-9,90.0,77.5,70.2,76.5,71.8,68.8,93,80,53,29.99,29.88,16,1,16,0.33
2012-7-10,91.5,80.3,70.3,73.2,69.9,62.3,91,68,37,29.98,29.90,16,1,16,0.01
2012-7-11,91.3,79.3,68.1,74.8,68.8,61.8,92,69,42,30.02,29.92,25,2,27,0.01
2012-7-12,88.2,77.7,66.4,73.8,68.3,64.3,92,70,50,30.02,29.94,22,3,22,0.00
2012-7-13,87.5,75.7,67.8,72.7,69.4,65.5,91,78,55,30.04,29.97,18,1,18,0.00
2012-7-14,86.4,77.8,71.7,73.7,71.0,68.2,92,77,54,30.09,30.00,23,2,23,0.01
2012-7-15,90.7,79.4,69.0,75.5,70.6,67.2,92,72,49,30.12,30.00,20,2,20,0.01
2012-7-16,94.7,82.9,70.8,74.6,71.3,68.7,91,66,42,30.06,29.90,25,2,25,0.00
2012-7-17,95.6,82.8,74.4,75.9,72.9,70.5,85,69,45,29.96,29.86,18,2,20,0.00
2012-7-18,100.2,87.1,74.3,77.8,73.4,70.8,87,62,38,29.96,29.83,16,2,16,0.00
2012-7-19,101.2,86.3,74.7,77.7,73.0,69.2,80,63,38,29.96,29.80,22,3,22,0.00
2012-7-20,96.2,84.0,73.1,77.2,71.2,67.0,86,63,41,29.97,29.84,22,2,22,0.00
2012-7-21,95.0,79.7,67.8,71.0,65.4,59.1,86,61,35,30.04,29.96,16,2,16,0.00
2012-7-22,99.3,81.5,63.3,74.8,67.7,60.0,88,62,33,30.10,30.00,14,1,14,0.00
2012-7-23,97.5,85.9,74.9,75.0,72.1,70.3,83,61,40,30.12,30.00,22,3,22,0.00
2012-7-24,101.1,88.1,77.1,74.2,71.2,68.4,77,55,33,30.02,29.87,22,4,25,0.00
2012-7-25,100.5,88.5,77.7,74.7,71.1,67.6,77,54,32,29.92,29.78,31,4,31,0.00
2012-7-26,99.8,86.9,71.9,74.8,71.6,68.2,87,58,36,29.84,29.72,25,4,25,0.23
2012-7-27,77.4,76.0,75.1,68.2,67.2,66.0,71,70,69,29.96,29.93,4,0,5,0.00
2012-7-28,95.0,80.3,65.1,68.2,64.3,58.8,90,58,30,30.05,29.96,18,2,20,0.00
2012-7-29,81.4,73.1,64.2,71.8,66.7,61.2,88,77,59,30.08,29.96,13,0,14,0.11
2012-7-30,96.3,82.0,70.4,76.5,70.6,66.2,86,66,43,29.97,29.82,18,2,18,0.00
2012-7-31,99.5,84.8,70.9,77.2,71.7,66.3,89,64,32,29.93,29.83,16,2,16,0.00
2012-8-1,100.8,85.2,75.4,76.5,71.0,64.2,84,61,33,29.89,29.78,16,2,18,0.00
2012-8-2,99.8,83.8,70.0,82.4,71.7,67.0,91,65,36,29.86,29.71,23,1,23,0.13
2012-8-3,94.8,84.1,74.7,77.2,73.3,70.5,84,67,50,29.84,29.76,20,2,20,0.00
2012-8-4,92.9,83.5,78.0,76.9,74.7,73.2,84,72,51,29.99,29.83,20,2,22,0.05
2012-8-5,93.5,83.0,74.6,77.8,73.2,68.7,89,69,53,30.09,29.96,22,2,22,0.03
2012-8-6,96.8,80.9,68.3,68.7,62.1,53.8,82,53,21,30.09,29.95,18,1,18,0.00
2012-8-7,97.5,79.1,60.2,68.7,58.3,50.6,89,52,18,30.00,29.89,16,1,16,0.00
2012-8-8,100.5,81.8,60.9,69.4,62.9,57.5,87,54,25,29.98,29.84,16,1,16,0.00
2012-8-9,96.7,81.6,0.0,72.0,67.3,62.8,81,60,30,29.87,29.72,22,2,22,0.00
2012-8-10,87.7,75.9,62.6,68.4,61.3,53.0,83,58,35,29.94,29.75,25,3,25,0.00
2012-8-11,88.0,70.9,56.1,58.2,52.3,44.6,86,53,22,30.02,29.92,18,2,18,0.00
2012-8-12,89.8,69.5,51.6,62.3,54.3,48.4,88,59,24,30.05,29.95,16,1,16,0.00
2012-8-13,83.8,71.2,63.8,70.6,64.1,56.6,92,75,56,29.95,29.80,27,3,27,1.26
2012-8-14,81.0,69.6,62.8,67.9,63.6,61.3,93,79,51,29.98,29.87,16,2,16,0.00
2012-8-15,90.2,74.7,58.3,66.2,61.1,56.6,92,62,33,30.01,29.90,13,1,14,0.00
2012-8-16,96.5,78.0,64.9,72.8,66.6,61.4,92,67,37,29.98,29.75,36,2,36,0.68
2012-8-17,83.3,70.4,59.0,67.6,63.3,55.0,93,76,44,30.01,29.92,14,1,14,0.00
2012-8-18,84.3,68.7,53.1,61.0,55.2,50.1,91,62,30,30.00,29.87,13,1,14,0.00
2012-8-19,85.7,70.9,54.0,62.2,55.7,50.1,90,59,28,29.94,29.87,22,1,22,0.00
2012-8-20,87.5,71.5,56.8,60.7,56.1,49.6,88,58,27,29.99,29.92,14,1,14,0.00
2012-8-21,89.6,71.2,53.8,66.3,57.0,51.1,92,62,25,30.06,29.97,14,1,14,0.00
2012-8-22,95.2,75.3,56.6,64.7,58.0,51.8,92,57,20,30.07,29.97,14,1,14,0.00
2012-8-23,95.3,75.3,58.1,67.2,59.7,53.8,93,60,24,30.07,29.96,14,1,14,0.00
2012-8-24,94.2,76.9,60.5,68.1,62.0,58.0,90,60,31,30.07,29.97,22,1,22,0.00
2012-8-25,90.2,76.7,62.7,69.4,64.9,60.1,90,65,41,30.05,29.99,22,2,23,0.00
2012-8-26,93.1,78.6,70.1,73.2,67.5,64.4,89,66,41,30.11,29.95,22,2,22,0.28
2012-8-27,93.8,80.6,71.4,76.1,70.5,67.0,87,68,50,30.04,29.94,18,2,18,0.00
2012-8-28,93.0,76.9,63.6,68.8,60.9,53.3,89,58,27,30.06,29.94,16,2,18,0.00
2012-8-29,93.3,76.1,59.1,67.8,60.3,54.9,86,58,30,30.00,29.89,18,1,18,0.00
2012-8-30,93.2,77.4,0.0,73.6,65.8,57.1,85,65,45,30.01,29.92,18,2,20,0.00
2012-8-31,90.8,82.6,76.6,73.9,71.4,69.4,78,66,47,30.04,29.89,32,7,32,0.02
2012-9-1,88.5,77.6,70.0,74.6,71.7,68.4,93,79,57,29.98,29.77,32,5,38,2.90
2012-9-2,79.2,73.6,70.8,74.0,71.1,69.6,93,88,78,29.83,29.77,27,4,27,0.43
2012-9-3,85.8,76.2,72.0,78.0,72.1,69.4,93,84,68,29.86,29.75,20,2,22,0.07
2012-9-4,91.2,79.1,68.2,78.4,71.9,67.0,94,77,50,29.90,29.82,14,1,14,0.00
2012-9-5,88.2,75.1,70.2,77.2,71.1,68.8,93,84,63,29.87,29.77,18,1,18,0.06
2012-9-6,94.0,77.7,65.6,77.6,69.8,63.2,92,75,45,30.02,29.82,47,1,52,0.82
2012-9-7,93.1,76.5,64.2,74.6,68.2,62.5,93,74,49,29.92,29.62,45,3,45,1.73
2012-9-8,78.4,66.4,53.4,67.8,58.2,51.1,93,73,42,29.99,29.76,23,4,29,0.03
2012-9-9,81.8,63.8,49.9,60.3,53.6,48.5,93,69,36,30.11,29.96,22,2,22,0.00
2012-9-10,84.8,65.7,50.2,62.4,55.8,48.8,93,70,35,30.19,30.08,13,1,13,0.00
2012-9-11,87.3,69.5,53.0,66.3,59.4,52.2,96,70,38,30.21,30.10,13,1,13,0.00
2012-9-12,63.4,62.2,59.6,61.6,60.9,58.1,93,92,86,30.21,30.14,5,0,5,0.00
2012-9-13,83.3,65.6,62.8,66.4,62.3,61.6,92,86,51,30.21,30.15,14,0,14,0.00
2012-9-14,78.8,68.7,62.3,69.0,63.7,60.5,92,81,64,30.26,30.19,18,2,18,0.00
2012-9-15,77.4,67.9,60.5,67.0,62.1,55.7,92,78,60,30.26,30.11,14,1,14,0.03
2012-9-16,79.7,69.1,63.8,72.4,66.4,62.8,95,88,71,30.11,29.98,9,0,9,0.15
2012-9-17,73.4,70.2,67.2,70.5,68.9,66.4,95,91,85,29.99,29.75,13,1,13,0.20
2012-9-18,75.8,64.4,48.3,68.0,54.6,46.3,94,70,37,30.09,29.73,31,5,31,0.00
2012-9-19,77.8,59.6,42.4,54.6,46.6,41.6,96,64,28,30.19,30.05,14,1,14,0.00
2012-9-20,84.3,67.6,53.6,62.6,54.5,46.6,90,61,39,30.07,29.93,22,2,22,0.00
2012-9-21,81.2,67.4,54.6,67.2,60.6,53.8,95,77,53,30.03,29.79,32,3,32,0.03
2012-9-22,84.5,67.2,49.7,62.7,51.7,38.7,90,57,26,30.18,29.85,22,3,23,0.00
2012-9-23,74.7,55.0,38.3,50.6,42.9,36.7,94,64,31,30.30,30.18,22,1,22,0.00
2012-9-24,75.3,57.7,37.7,51.7,44.8,36.6,95,63,30,30.29,30.03,16,1,16,0.00
2012-9-25,87.3,73.1,56.4,71.7,63.4,49.7,81,68,55,30.04,29.89,22,3,22,0.00
2012-9-26,86.6,73.7,64.7,72.8,67.8,63.8,94,79,54,30.09,29.97,27,2,27,0.56
2012-9-27,84.0,71.0,64.8,75.3,67.9,64.5,96,87,62,30.14,30.05,13,0,13,0.21
2012-9-28,74.8,67.6,59.3,71.6,65.5,57.4,96,89,77,30.12,30.04,11,1,13,0.77
2012-9-29,80.2,64.0,50.7,62.4,56.6,50.2,95,76,45,30.09,29.97,18,1,18,0.00
2012-9-30,75.2,63.0,51.8,63.0,57.5,51.3,96,80,57,29.98,29.79,7,0,7,0.00
2012-10-1,62.2,58.5,56.5,60.5,56.2,53.4,93,88,74,29.80,29.62,22,3,22,0.15
2012-10-2,62.6,58.0,55.2,57.3,54.9,52.9,91,85,77,29.93,29.69,16,1,16,0.00
2012-10-3,80.3,65.5,49.2,59.9,55.9,48.1,95,70,42,30.12,29.93,16,1,22,0.01
2012-10-4,84.2,67.9,54.3,64.6,58.8,52.4,93,72,41,30.23,30.11,14,1,16,0.00
2012-10-5,74.3,58.6,43.5,63.0,54.5,42.4,94,83,62,30.18,29.97,29,3,29,0.49
2012-10-6,62.9,48.0,36.9,48.1,40.7,36.4,95,74,38,30.26,30.16,20,2,20,0.01
2012-10-7,63.7,50.3,43.2,43.8,40.1,35.9,84,66,37,30.27,30.18,18,2,22,0.00
2012-10-8,67.5,51.1,39.9,44.5,40.7,36.3,90,67,35,30.26,30.13,14,1,14,0.00
2012-10-9,69.0,51.4,34.6,49.1,42.8,33.6,95,72,42,30.16,29.98,20,2,20,0.00
2012-10-10,65.8,54.2,37.3,52.9,41.8,31.8,90,62,28,30.27,30.01,23,3,23,0.00
2012-10-11,66.5,50.7,33.2,48.5,39.7,32.2,94,65,33,30.31,30.17,14,1,14,0.00
2012-10-12,63.4,56.2,51.4,57.5,53.2,48.3,94,85,65,30.34,30.16,20,1,20,0.54
2012-10-13,82.9,68.0,51.3,69.9,61.8,50.5,94,77,52,30.25,29.92,20,3,23,0.00
2012-10-14,73.8,67.9,58.3,66.7,62.4,55.3,90,78,63,29.94,29.78,36,6,36,0.43
2012-10-15,77.0,59.8,47.3,55.6,50.6,46.2,94,71,33,30.03,29.93,18,1,18,0.01
2012-10-16,81.1,62.6,44.9,60.9,52.3,43.9,94,67,40,29.98,29.75,20,2,20,0.00
2012-10-17,80.3,66.1,57.1,60.5,55.5,51.9,93,66,40,29.78,29.37,38,5,41,0.86
2012-10-18,68.8,57.8,49.7,57.0,44.8,35.4,92,61,27,29.73,29.59,36,4,36,0.00
2012-10-19,59.4,54.1,50.3,48.0,43.2,39.0,80,62,52,29.83,29.62,29,4,29,0.03
2012-10-20,70.5,54.8,45.6,51.4,46.6,43.6,90,70,42,29.96,29.82,20,2,20,0.00
2012-10-21,81.3,63.9,44.3,63.5,53.9,43.4,94,68,47,30.04,29.96,18,2,18,0.00
2012-10-22,84.5,70.2,57.5,62.6,55.4,49.8,81,57,29,30.09,30.00,27,3,27,0.00
2012-10-23,83.2,67.4,53.5,65.1,57.2,51.3,89,67,45,30.06,29.96,23,2,23,0.00
2012-10-24,84.3,70.0,60.1,67.1,59.9,55.1,82,66,46,30.07,29.96,22,2,22,0.00
2012-10-25,83.0,70.7,54.2,65.7,61.0,50.6,84,68,50,30.04,29.88,27,3,31,0.00
2012-10-26,54.1,44.5,39.5,50.8,42.3,36.8,92,87,80,30.26,30.04,32,6,32,0.88
2012-10-27,61.6,45.8,35.5,44.9,37.6,33.4,88,70,39,30.23,30.11,27,6,27,0.00
2012-10-28,61.6,45.5,36.2,43.7,36.5,33.3,87,68,40,30.21,30.14,25,5,25,0.00
2012-10-29,61.8,45.4,34.1,39.1,33.4,29.9,87,61,29,30.25,30.05,29,4,29,0.00
2012-10-30,61.2,46.3,38.7,32.1,29.8,26.4,66,50,24,30.05,29.84,32,4,36,0.00
2012-10-31,62.8,45.3,31.5,34.4,29.5,22.3,80,53,20,29.99,29.89,20,2,22,0.00
2012-11-1,69.8,48.1,26.5,40.4,33.7,24.7,90,58,24,30.05,29.91,16,1,16,0.00
2012-11-2,66.3,49.9,39.0,44.1,37.0,28.9,87,60,25,30.06,29.90,14,1,14,0.00
2012-11-3,77.5,54.0,39.1,51.0,39.4,32.1,74,55,32,30.13,29.94,31,3,31,0.00
2012-11-4,59.7,42.8,36.3,39.9,34.9,29.0,91,72,29,30.24,30.13,14,1,14,0.00
2012-11-5,51.7,44.2,36.5,42.9,37.6,34.1,92,78,55,30.18,30.06,13,1,13,0.06
2012-11-6,51.9,45.7,38.6,43.6,40.8,35.6,92,83,70,30.08,29.95,18,1,18,0.00
2012-11-7,54.6,46.2,36.1,45.0,40.6,33.3,90,81,67,30.19,29.94,23,2,23,0.00
2012-11-8,62.9,43.9,28.8,46.8,36.9,26.8,97,79,48,30.28,30.15,13,1,14,0.01
2012-11-9,72.3,54.8,35.4,51.2,43.4,33.3,96,68,45,30.20,30.05,22,2,22,0.00
2012-11-10,75.5,63.3,53.1,57.8,49.1,43.8,78,60,46,30.17,30.05,29,4,29,0.00
2012-11-11,72.9,64.7,54.6,58.6,53.2,45.4,93,67,55,30.10,29.91,36,8,40,0.63
2012-11-12,54.5,44.1,29.1,52.7,35.3,23.7,95,74,36,30.46,29.99,31,4,31,0.74
2012-11-13,57.0,38.3,24.5,36.7,28.1,22.8,96,71,34,30.54,30.44,16,1,16,0.00
2012-11-14,50.4,37.1,27.4,35.5,29.9,25.1,91,77,50,30.48,30.35,13,1,13,0.00
2012-11-15,59.9,39.6,25.3,39.8,31.3,23.6,96,75,43,30.41,30.31,13,1,14,0.00
2012-11-16,63.5,46.6,26.7,40.9,32.9,24.9,96,63,33,30.45,30.37,14,2,16,0.00
2012-11-17,67.3,43.3,26.1,41.8,32.1,24.1,96,70,30,30.50,30.38,14,1,14,0.00
2012-11-18,67.8,44.3,27.4,45.0,34.6,25.6,96,73,35,30.42,30.31,11,0,11,0.00
2012-11-19,69.5,50.0,33.0,46.6,38.9,30.9,96,70,35,30.33,30.15,11,0,11,0.00
2012-11-20,73.0,57.7,47.9,52.3,47.5,42.5,91,70,48,30.15,30.02,18,2,20,0.00
2012-11-21,70.3,50.5,37.0,53.2,43.6,34.8,97,80,49,30.26,30.14,14,1,16,0.00
2012-11-22,68.6,50.9,34.1,50.5,42.5,32.4,97,75,49,30.19,30.05,22,2,23,0.00
2012-11-23,59.6,48.9,31.4,51.2,37.0,22.5,92,65,43,30.32,30.06,34,6,34,0.04
2012-11-24,45.1,32.7,25.0,26.6,22.2,18.6,82,66,44,30.36,30.13,16,2,16,0.00
2012-11-25,61.7,42.8,30.8,34.7,28.9,22.8,88,61,34,30.13,29.95,22,2,23,0.00
2012-11-26,53.6,40.9,30.9,44.5,36.1,28.5,94,84,50,30.28,30.05,29,2,29,0.53
2012-11-27,49.9,34.7,23.5,37.5,28.7,21.3,92,80,54,30.41,30.28,22,4,22,0.00
2012-11-28,54.4,33.9,19.9,36.9,26.2,18.0,96,77,41,30.48,30.37,11,0,11,0.00
2012-11-29,59.9,40.1,23.2,36.6,29.1,21.1,96,69,35,30.38,30.22,18,1,18,0.00
2012-11-30,65.5,50.4,31.2,46.4,39.7,27.8,89,68,45,30.24,30.13,23,2,29,0.00
2012-12-1,68.0,58.6,45.7,53.6,48.5,41.3,88,70,58,30.20,30.06,25,3,25,0.00
2012-12-2,66.0,64.2,62.4,61.2,58.2,51.4,90,81,67,30.11,30.05,25,5,25,0.05
2012-12-3,72.6,66.1,61.1,62.0,58.8,54.3,88,78,64,30.11,30.01,31,4,32,0.00
2012-12-4,66.5,58.8,41.8,64.3,54.6,39.8,95,86,74,30.26,30.00,23,4,29,0.48
2012-12-5,66.0,45.9,33.2,51.8,38.4,31.9,97,78,41,30.34,30.14,18,1,18,0.01
2012-12-6,56.7,47.7,35.1,52.1,44.1,32.8,96,88,74,30.14,29.94,11,1,11,0.00
2012-12-7,62.1,56.8,52.2,58.2,54.9,50.8,97,93,85,29.94,29.82,18,1,18,0.22
2012-12-8,61.2,55.2,49.9,57.2,52.6,47.4,96,91,82,29.95,29.83,20,3,20,0.00
2012-12-9,67.0,56.7,47.5,64.1,55.0,45.3,98,94,86,29.92,29.71,29,4,29,0.80
2012-12-10,47.4,36.3,31.0,45.4,32.1,24.3,93,85,76,30.09,29.79,25,6,25,0.00
2012-12-11,45.7,32.4,22.4,30.0,24.3,19.3,92,73,48,30.28,30.08,16,1,18,0.00
2012-12-12,52.7,33.4,20.6,39.7,27.0,18.6,100,81,40,30.39,30.28,9,1,9,0.00
2012-12-13,58.4,36.8,21.6,39.6,27.5,20.1,97,74,32,30.41,30.27,13,1,13,0.00
2012-12-14,61.4,43.3,24.7,40.5,32.4,23.0,97,69,36,30.31,30.07,16,1,16,0.00
2012-12-15,62.4,55.5,49.6,60.0,52.0,40.5,95,88,67,30.07,29.75,25,4,25,0.13
2012-12-16,63.9,59.9,55.7,59.8,56.4,52.5,97,89,70,29.77,29.64,16,2,16,0.00
2012-12-17,62.9,53.3,44.6,56.9,50.3,41.0,98,90,68,29.81,29.58,27,4,29,0.00
2012-12-18,61.2,48.1,35.3,44.4,40.8,33.6,96,77,50,29.90,29.78,23,2,29,0.00
2012-12-19,64.5,51.8,35.2,54.3,45.2,33.8,97,80,59,29.99,29.64,27,3,27,0.00
2012-12-20,64.0,48.2,33.2,58.8,39.7,24.0,96,73,58,29.95,29.36,59,15,59,0.58
2012-12-21,49.4,36.7,30.6,25.7,20.9,17.0,70,54,33,30.30,29.95,36,9,40,0.00
2012-12-22,51.9,36.1,20.0,31.1,22.7,16.1,91,61,33,30.34,30.04,16,1,16,0.00
2012-12-23,63.9,51.1,40.6,50.6,42.2,31.0,96,72,55,30.04,29.82,14,2,14,0.01
2012-12-24,58.3,45.9,33.6,50.2,41.6,29.4,98,86,57,30.09,29.76,20,4,22,0.01
2012-12-25,39.2,35.9,32.1,34.0,31.2,28.3,92,83,76,30.16,29.68,40,8,40,0.04
2012-12-26,37.0,33.8,32.3,33.5,31.4,28.8,96,91,85,30.16,29.62,41,9,43,0.15
2012-12-27,38.9,33.5,30.5,32.3,29.2,27.6,90,84,72,30.24,30.09,13,1,13,0.16
2012-12-28,41.5,36.2,31.3,36.3,33.3,29.1,97,89,79,30.10,29.81,14,1,14,0.30
2012-12-29,34.7,32.1,26.1,33.5,29.8,23.5,97,91,81,30.39,29.85,32,4,32,0.08
2012-12-30,42.7,30.5,14.9,32.1,25.3,13.0,96,81,62,30.54,30.33,14,1,14,0.00
2012-12-31,43.2,38.4,34.8,37.3,33.1,29.5,96,82,68,30.34,30.05,13,1,13,0.36
2013-1-1,37.2,33.0,24.2,36.1,31.2,21.2,97,93,86,30.25,30.04,18,4,20,0.01